User: anonymous   Login
Location: Unspecified
(0.0000°N, 0.0000°E)
Time: 06:44:26
(UTC+00:00)
Language:

Interbol-2 - Orbit

View from above orbital plane
View from above orbital plane
View from above satellite
View from above satellite

Ground track
Ground track

The orbit data is extracted from the following two-line orbital elements,

1 24292U 96050B   17086.64305031 +.00000051 +00000-0 +00000-0 0  9999
2 24292 063.5686 232.6161 5183695 238.3107 063.5493 04.14702474311522
Epoch (UTC): 27 March 2017 15:25:59
Eccentricity: 0.5183695
inclination: 63.5686°
perigee height: 1503 km
apogee height: 18469 km
right ascension of ascending node: 232.6161°
argument of perigee: 238.3107°
revolutions per day: 4.14702474
mean anomaly at epoch: 63.5493°
orbit number at epoch: 31152

The dashed part of the orbit path shows where the satellite is in the earth's shadow,  

DLR